Location: Newark
(51.3000°N, 178.2000°W)
Time: 01:43:49
(UTC+00:00)

ISS - Pass Details

Date: 14 May 2021
Orbit: 417 x 422 km, 51.6° (Epoch: 15 June)

Event Time Altitude Azimuth Distance (km) Brightness Sun altitude
Exits shadow 13:13:32 - 280° (W) 1,856 -0.6 -17.5°
Reaches altitude 10° 13:14:23 10° 279° (W) 1,508 -1.1 -17.5°
Maximum altitude 13:17:46 83° 192° (SSW) 430 -3.9 -17.3°
Drops below altitude 10° 13:21:10 10° 104° (ESE) 1,508 -0.8 -17.1°
Sets 13:23:16 0° 104° (ESE) 2,372 0.2 -17.0°
